Columbia Airport, CA

10:24 PM PDT on October 15, 2019 (GMT -0700)
Columbia Airport

Weather History for KO22 - July, 2019

Change the Weather History Date:

Saturday, July 20, 2019

  Actual Average (KMOD) Record (KMOD)
Temperature  
Mean Temperature 74 °F -  
Max Temperature 89 °F 94 °F 108 °F (1960)
Min Temperature 59 °F 61 °F 50 °F (1949)
Cooling Degree Days 9    
Growing Degree Days 24 (Base 50)    
Moisture  
Dew Point 53 °F    
Average Humidity 50    
Maximum Humidity 82    
Minimum Humidity 26    
Precipitation  
Precipitation 0.00 in - - ()
Sea Level Pressure  
Sea Level Pressure 29.93 in    
Wind  
Wind Speed 2 mph (SW)    
Max Wind Speed 8 mph    
Max Gust Speed 14 mph    
Visibility 10 miles    
Events      
Averages and records for this station are not official NWS values.
T = Trace of Precipitation, MM = Missing Value Source: NWS Daily Summary

Daily Weather History Graph

Daily Weather History Graph

Search for Another Location

Airport or City:

Astronomy

Jul. 20, 2019 Rise Set
Actual Time 5:54 AM PDT 8:20 PM PDT
Civil Twilight 5:24 AM PDT 8:51 PM PDT
Nautical Twilight 4:47 AM PDT 9:28 PM PDT
Astronomical Twilight 4:05 AM PDT 10:09 PM PDT
Moon 10:53 PM PDT (7/20) 9:20 AM PDT (7/20)
Length of Visible Light 15h 26m
Length of Day
14h 26m
Waning Gibbous, 86% of the Moon is Illuminated
Jul 20
Waning Gibbous
Jul 24
Last Quarter
Jul 31
New
Aug 7
First Quarter
Aug 15
Full

Hourly Weather History & Observations

Time (PDT) Temp. Heat Index Dew Point Humidity Pressure Visibility Wind Dir Wind Speed Gust Speed Precip Events Conditions
12:15 AM 64.4 °F - 53.6 °F 68% 29.92 in 10.0 mi Calm Calm - N/A   Clear
12:35 AM 64.4 °F - 53.6 °F 68% 29.92 in 10.0 mi Calm Calm - N/A   Clear
12:55 AM 64.4 °F - 53.6 °F 68% 29.92 in 10.0 mi Variable 4.6 mph - N/A   Clear
1:15 AM 64.4 °F - 53.6 °F 68% 29.92 in 10.0 mi Calm Calm - N/A   Clear
1:35 AM 64.4 °F - 53.6 °F 68% 29.92 in 10.0 mi Calm Calm - N/A   Clear
1:55 AM 62.6 °F - 53.6 °F 72% 29.92 in 10.0 mi Calm Calm - N/A   Clear
2:15 AM 62.6 °F - 53.6 °F 72% 29.92 in 10.0 mi Calm Calm - N/A   Clear
2:35 AM 62.6 °F - 53.6 °F 72% 29.92 in 10.0 mi Calm Calm - N/A   Clear
2:55 AM 62.6 °F - 53.6 °F 72% 29.92 in 10.0 mi Calm Calm - N/A   Clear
3:15 AM 62.6 °F - 53.6 °F 72% 29.92 in 10.0 mi Calm Calm - N/A   Clear
3:35 AM 60.8 °F - 53.6 °F 77% 29.92 in 10.0 mi Calm Calm - N/A   Clear
3:55 AM 60.8 °F - 53.6 °F 77% 29.92 in 10.0 mi Calm Calm - N/A   Clear
4:15 AM 60.8 °F - 53.6 °F 77% 29.91 in 10.0 mi Calm Calm - N/A   Clear
4:35 AM 60.8 °F - 53.6 °F 77% 29.91 in 10.0 mi North - - N/A   Clear
4:55 AM 60.8 °F - 53.6 °F 77% 29.91 in 10.0 mi Calm Calm - N/A   Clear
5:15 AM 60.8 °F - 53.6 °F 77% 29.92 in 10.0 mi Calm Calm - N/A   Clear
5:35 AM 59.0 °F - 53.6 °F 82% 29.92 in 10.0 mi Calm Calm - N/A   Clear
5:55 AM 60.8 °F - 53.6 °F 77% 29.93 in 10.0 mi Calm Calm - N/A   Clear
6:15 AM 60.8 °F - 53.6 °F 77% 29.93 in 9.0 mi Calm Calm - N/A   Clear
6:35 AM 60.8 °F - 53.6 °F 77% 29.93 in 10.0 mi Calm Calm - N/A   Clear
6:55 AM 62.6 °F - 55.4 °F 77% 29.93 in 10.0 mi Calm Calm - N/A   Clear
7:15 AM 64.4 °F - 55.4 °F 73% 29.93 in 10.0 mi Calm Calm - N/A   Clear
7:35 AM 68.0 °F - 57.2 °F 68% 29.94 in 10.0 mi North - - N/A   Clear
7:55 AM 69.8 °F - 57.2 °F 64% 29.95 in 10.0 mi Calm Calm - N/A   Clear
8:15 AM 73.4 °F - 57.2 °F 57% 29.95 in 10.0 mi Calm Calm - N/A   Clear
8:35 AM 75.2 °F - 53.6 °F 47% 29.95 in 10.0 mi Calm Calm - N/A   Clear
8:55 AM 78.8 °F - 53.6 °F 42% 29.95 in 10.0 mi Calm Calm - N/A   Clear
9:15 AM 80.6 °F 80.3 °F 53.6 °F 39% 29.95 in 10.0 mi Calm Calm - N/A   Clear
9:35 AM 82.4 °F 81.7 °F 55.4 °F 39% 29.95 in 10.0 mi Calm Calm - N/A   Clear
9:55 AM 82.4 °F 81.7 °F 55.4 °F 39% 29.95 in 10.0 mi South 4.6 mph - N/A   Clear
10:15 AM 82.4 °F 81.7 °F 55.4 °F 39% 29.95 in 10.0 mi South 4.6 mph - N/A   Clear
10:35 AM 82.4 °F 81.7 °F 55.4 °F 39% 29.95 in 10.0 mi Variable 4.6 mph - N/A   Clear
10:55 AM 84.2 °F 83.0 °F 55.4 °F 37% 29.95 in 10.0 mi Variable 4.6 mph - N/A   Clear
11:15 AM 84.2 °F 82.8 °F 53.6 °F 35% 29.95 in 10.0 mi South 4.6 mph - N/A   Clear
11:35 AM 84.2 °F 82.8 °F 53.6 °F 35% 29.95 in 10.0 mi South 5.8 mph - N/A   Clear
11:55 AM 87.8 °F 85.7 °F 53.6 °F 31% 29.95 in 10.0 mi Variable 5.8 mph - N/A   Clear
12:15 PM 87.8 °F - 51.8 °F 29% 29.95 in 10.0 mi SSW 5.8 mph 11.5 mph N/A   Clear
12:35 PM 87.8 °F - 51.8 °F 29% 29.95 in 10.0 mi South 4.6 mph - N/A   Clear
12:55 PM 87.8 °F - 51.8 °F 29% 29.95 in 10.0 mi WSW 5.8 mph - N/A   Clear
1:15 PM 87.8 °F - 51.8 °F 29% 29.95 in 10.0 mi SSW 6.9 mph - N/A   Clear
1:35 PM 87.8 °F - 51.8 °F 29% 29.95 in 10.0 mi WSW 4.6 mph - N/A   Clear
1:55 PM 89.6 °F - 51.8 °F 27% 29.94 in 10.0 mi Variable 5.8 mph - N/A   Clear
2:35 PM 89.6 °F - 50.0 °F 26% 29.94 in 10.0 mi Variable 4.6 mph - N/A   Clear
2:55 PM 89.6 °F - 51.8 °F 27% 29.93 in 10.0 mi SW 8.1 mph - N/A   Clear
3:15 PM 89.6 °F - 51.8 °F 27% 29.93 in 10.0 mi SW 6.9 mph 13.8 mph N/A   Clear
3:35 PM 89.6 °F - 51.8 °F 27% 29.92 in 10.0 mi SW 6.9 mph 12.7 mph N/A   Clear
3:55 PM 89.6 °F - 51.8 °F 27% 29.92 in 10.0 mi SSW 6.9 mph 13.8 mph N/A   Clear
4:15 PM 89.6 °F - 51.8 °F 27% 29.92 in 10.0 mi WSW 8.1 mph - N/A   Clear
4:35 PM 89.6 °F - 51.8 °F 27% 29.91 in 10.0 mi Variable 3.5 mph 11.5 mph N/A   Clear
4:55 PM 89.6 °F - 51.8 °F 27% 29.91 in 10.0 mi West 6.9 mph - N/A   Clear
5:15 PM 89.6 °F - 51.8 °F 27% 29.90 in 10.0 mi Variable 4.6 mph - N/A   Clear
5:35 PM 89.6 °F - 50.0 °F 26% 29.90 in 10.0 mi WSW 6.9 mph - N/A   Clear
5:55 PM 87.8 °F - 50.0 °F 27% 29.90 in 10.0 mi Calm Calm - N/A   Clear
6:15 PM 87.8 °F - 50.0 °F 27% 29.90 in 10.0 mi Variable 4.6 mph - N/A   Clear
6:35 PM 86.0 °F - 50.0 °F 29% 29.90 in 10.0 mi Variable 5.8 mph - N/A   Clear
6:55 PM 84.2 °F - 50.0 °F 30% 29.90 in 10.0 mi WNW 5.8 mph - N/A   Clear
7:15 PM 84.2 °F - 50.0 °F 30% 29.90 in 10.0 mi Variable 3.5 mph - N/A   Clear
7:35 PM 82.4 °F - 50.0 °F 32% 29.90 in 10.0 mi Variable 4.6 mph - N/A   Clear
7:55 PM 80.6 °F - 50.0 °F 34% 29.91 in 10.0 mi Variable 4.6 mph - N/A   Clear
8:15 PM 78.8 °F - 50.0 °F 36% 29.91 in 10.0 mi West 4.6 mph - N/A   Clear
8:35 PM 77.0 °F - 50.0 °F 39% 29.91 in 10.0 mi Calm Calm - N/A   Clear
8:55 PM 75.2 °F - 51.8 °F 44% 29.91 in 10.0 mi Calm Calm - N/A   Clear
9:15 PM 73.4 °F - 53.6 °F 50% 29.92 in 10.0 mi Calm Calm - N/A   Clear
9:35 PM 71.6 °F - 53.6 °F 53% 29.92 in 10.0 mi Calm Calm - N/A   Clear
9:55 PM 69.8 °F - 53.6 °F 56% 29.92 in 10.0 mi Calm Calm - N/A   Clear
10:35 PM 68.0 °F - 53.6 °F 60% 29.93 in 10.0 mi Calm Calm - N/A   Clear
10:55 PM 68.0 °F - 53.6 °F 60% 29.93 in 10.0 mi Calm Calm - N/A   Clear
11:15 PM 68.0 °F - 53.6 °F 60% 29.93 in 10.0 mi Calm Calm - N/A   Clear
11:35 PM 66.2 °F - 53.6 °F 64% 29.93 in 10.0 mi Calm Calm - N/A   Clear
11:55 PM 64.4 °F - 53.6 °F 68% 29.94 in 10.0 mi Calm Calm - N/A   Clear